www.pogodaiklimat.ru

Погода и климат >> Архив погоды >> Норвегия >> Вангснес


ПОГОДА в Вангснесе

  • Прогноз погоды в Вангснесе
  • Монитор погоды в Вангснесе

АРХИВ ПОГОДЫ в Вангснесе

Время (UTC), дата Ветер
(напр.,м/с)
 
Видим.   Явления Облачность Т
(С)
Тd
(С)
f
(%)
Тe
(С)
Тes
(С)
Комфортность P
(гПа)
Po
(гПа)
Тmin
(С)
Tmax
(С)
R
(мм)
R24
(мм)
S
(см)
19 10.06 штиль 0 н/о н/о +12.0 +7.5 74 +12 +12 1020.9 1014.3
20 10.06 СЗ 1-2
{2}
н/о н/о +12.2 +8.1 76 +12 +12 1021.0 1014.5
21 10.06 штиль 0
{3}
н/о н/о +10.5 +7.4 81 +10 +10 1021.4 1014.8
22 10.06 ЮЗ 1-3
{3}
н/о н/о +10.3 +7.7 84 +10 +10 1021.9 1015.3
23 10.06 штиль 0
{3}
н/о н/о +9.4 +7.0 85 +9 +9 1022.2 1015.6
00 11.06 ЮВ 1-2
{3}
н/о н/о +9.1 +7.1 87 +8 +8 1022.3 1015.7
01 11.06 В 2-3
{3}
н/о н/о +8.7 +6.7 87 +7 +7 1022.2 1015.6
02 11.06 ЮВ 3-5
{5}
н/о н/о +9.0 +7.0 87 +6 +6 1022.2 1015.6
03 11.06 В 2-4
{4}
н/о н/о +9.0 +7.0 87 +7 +7 1022.3 1015.7
04 11.06 В 2-4
{4}
н/о н/о +9.9 +7.8 87 +8 +8 1022.5 1015.9
05 11.06 СВ 1-4
{5}
н/о н/о +11.4 +8.1 80 +11 +11 1022.9 1016.3
06 11.06 СВ 2-5
{7}
55 км ясно +12.0 +8.1 77 +11 +15 1023.0 1016.4 +8.3 +12.7 0.3
07 11.06 СВ 2-4
{6}
н/о н/о +13.3 +8.6 73 +13 +13 1022.9 1016.4
08 11.06 В 2-4
{6}
н/о н/о +13.9 +8.3 69 +13 +13 1023.0 1016.5
09 11.06 В 2-4
{4}
н/о н/о +15.1 +7.7 61 +15 +15 1022.8 1016.3
10 11.06 В 2-4
{5}
н/о н/о +16.1 +8.1 59 +16 +16 1022.5 1016.0
11 11.06 В 2-3
{4}
н/о н/о +17.7 +6.6 48 +18 +18 1022.0 1015.5
12 11.06 штиль 0-1
{6}
55 км 1/1 1500 м
[Cu med, cong]
+19.3 +6.4 43 +20 +36 опасность
простуды
1021.2 1014.8
13 11.06 В 1-3
{3}
н/о н/о +17.5 +9.4 59 +19 +19 1021.1 1014.7
14 11.06 СВ 1-2
{2}
н/о н/о +21.1 +4.7 34 +21 +21 комфорт 1020.3 1014.0
15 11.06 ЮВ 2-4
{4}
н/о н/о +20.2 +9.8 51 +22 +22 комфорт 1020.3 1014.0
16 11.06 С 1-2
{3}
н/о н/о +22.3 +5.7 34 +23 +23 комфорт 1020.0 1013.7
17 11.06 штиль 0
{3}
н/о н/о +21.2 +6.3 38 +22 +22 комфорт 1020.0 1013.6
18 11.06 В 2-3
{4}
55 км 3/0
[Cs]
+18.1 +8.7 54 +19 +21 1019.9 1013.5 +12.1 +22.3
19 11.06 В 2-4
{4}
н/о н/о +17.9 +7.6 51 +18 +18 1020.1 1013.7
20 11.06 ЮВ 2-3
{3}
н/о н/о +17.8 +8.1 53 +18 +18 1020.2 1013.8
21 11.06 штиль 0
{4}
н/о н/о +17.5 +7.6 52 +18 +18 1020.7 1014.2
22 11.06 В 2-4
{4}
н/о н/о +17.9 +7.4 50 +18 +18 1020.8 1014.4
23 11.06 СВ 1-3
{4}
н/о н/о +17.4 +8.0 54 +18 +18 1021.1 1014.7
00 12.06 ЮВ 3-5
{7}
н/о н/о +17.8 +7.6 51 +18 +18 1021.1 1014.7 0.3
01 12.06 В 4-7
{7}
н/о н/о +17.7 +7.7 52 +17 +17 1020.9 1014.5
02 12.06 В 4-8
{8}
н/о н/о +17.7 +7.5 51 +17 +17 1020.5 1014.1
03 12.06 В 6-10
{12}
н/о н/о +17.5 +6.4 48 +17 +17 1021.3 1014.8
04 12.06 В 8-13
{13}
н/о н/о +16.6 +6.2 50 +15 +15 1022.0 1015.5
05 12.06 В 5-9
{13}
н/о н/о +16.2 +6.4 52 +15 +15 1021.7 1015.2
06 12.06 В 6-11
{13}
55 км 9/0
[Cc]
+16.8 +5.1 46 +16 +17 1021.3 1014.8 +16.1 +20.2 0.3
07 12.06 В 5-12
{12}
н/о н/о +16.4 +6.3 51 +16 +16 1020.8 1014.3
08 12.06 В 4-9
{12}
н/о н/о +15.3 +7.4 59 +14 +14 1021.3 1014.8
09 12.06 В 7-11
{12}
н/о н/о +14.4 +8.1 66 +12 +12 1021.6 1015.1
10 12.06 В 3-6
{9}
н/о н/о +13.8 +8.4 70 +13 +13 1021.8 1015.3
11 12.06 В 3-7
{8}
н/о н/о +14.1 +8.1 67 +13 +13 1021.3 1014.8
12 12.06 В 5-8
{12}
20 км осадки на расстоянии 10/6 600 м
[Frnb Ac As]
+14.2 +8.2 67 +13 +14 1020.5 1014.0 0.9
13 12.06 В 6-10
{11}
н/о н/о +14.4 +8.1 66 +13 +13 1019.9 1013.4
14 12.06 В 7-11
{11}
н/о н/о +15.0 +7.6 61 +13 +13 1019.0 1012.5
15 12.06 В 5-9
{11}
н/о н/о +15.0 +7.6 61 +14 +14 1018.6 1012.2
16 12.06 В 5-9
{10}
н/о н/о +15.1 +6.9 58 +14 +14 1017.8 1011.3
17 12.06 В 5-9
{11}
н/о н/о +15.3 +7.4 59 +14 +14 1017.1 1010.7
18 12.06 В 4-8
{11}
55 км 9/0 1500 м
[Ac As]
+15.3 +7.4 59 +14 +15 1016.6 1010.1 +13.5 +16.8
19 12.06 В 5-9
{9}
н/о н/о +15.4 +6.7 56 +14 +14 1015.8 1009.4
20 12.06 В 6-10
{11}
н/о н/о +14.8 +7.4 61 +13 +13 1015.2 1008.8
21 12.06 В 4-9
{10}
н/о н/о +14.8 +6.6 58 +14 +14 1014.8 1008.3
22 12.06 В 4-9
{11}
н/о н/о +14.1 +6.7 61 +13 +13 1014.0 1007.6
23 12.06 В 4-9
{11}
н/о н/о +13.8 +7.4 65 +12 +12 1013.8 1007.3
00 13.06 В 7-13
{13}
н/о н/о +12.5 +8.0 74 +10 +10 1013.0 1006.5
01 13.06 В 5-9
{11}
н/о н/о +12.0 +8.7 80 +10 +10 1012.4 1005.9
02 13.06 В 4-8
{9}
н/о н/о +12.2 +8.7 79 +10 +10 1010.9 1004.5
03 13.06 В 4-8
{10}
н/о н/о +12.9 +7.4 69 +11 +11 1009.8 1003.4
04 13.06 В 5-10
{10}
н/о н/о +12.1 +7.4 73 +10 +10 1008.4 1001.9
05 13.06 В 7-12
{13}
н/о н/о +12.6 +7.1 69 +10 +10 1007.5 1001.0
06 13.06 В 6-10
{13}
20 км {ливн. осадки} 9/0 2000 м
[Ac und]
+12.6 +7.7 72 +10 +11 1007.0 1000.6 +11.4 +15.5 0.6
07 13.06 В 6-12
{12}
н/о н/о +12.8 +7.5 70 +10 +10 1007.3 1000.9
08 13.06 В 5-10
{11}
н/о н/о +11.9 +9.1 83 +9 +9 1007.4 1001.0
09 13.06 В 4-8
{10}
н/о н/о +12.9 +9.4 79 +11 +11 1007.1 1000.6
10 13.06 В 5-9
{9}
н/о н/о +14.2 +8.6 69 +13 +13 1007.0 1000.6
11 13.06 В 5-8
{9}
н/о н/о +15.1 +8.8 66 +14 +14 1006.9 1000.6
12 13.06 СВ 3-7
{12}
н/о н/о +17.3 +9.2 59 +17 +17 1007.1 1000.7 2
13 13.06 В 4-8
{8}
н/о н/о +17.4 +9.6 60 +17 +17 1007.2 1000.9
14 13.06 В 4-10
{10}
н/о н/о +17.2 +8.6 57 +17 +17 1007.5 1001.1
15 13.06 В 4-8
{10}
н/о н/о +17.2 +9.1 59 +17 +17 1008.1 1001.8
16 13.06 В 4-8
{8}
н/о н/о +17.0 +8.9 59 +17 +17 1008.4 1002.0
17 13.06 В 6-9
{9}
н/о н/о +17.1 +9.0 59 +16 +16 1008.6 1002.2
18 13.06 В 6-10
{10}
55 км 6/0 2000 м
[Ac inh]
+17.9 +8.5 54 +17 +18 1009.1 1002.7 +11.4 +18.4 2
19 13.06 ЮВ 6-9
{11}
н/о н/о +18.2 +8.2 52 +18 +18 1009.8 1003.5
20 13.06 ЮВ 6-10
{10}
н/о н/о +17.8 +7.8 52 +17 +17 1010.4 1004.1
21 13.06 В 4-7
{9}
н/о н/о +17.3 +7.4 52 +17 +17 1011.5 1005.1
22 13.06 В 3-5
{7}
н/о н/о +16.8 +6.9 52 +17 +17 1012.5 1006.1
23 13.06 ЮВ 3-5
{6}
н/о н/о +16.4 +6.8 53 +16 +16 1012.9 1006.5
00 14.06 ЮВ 4-7
{11}
н/о н/о +16.6 +5.6 48 +16 +16 1013.4 1007.0
01 14.06 В 4-7
{9}
н/о н/о +15.7 +7.2 57 +15 +15 1013.6 1007.2
02 14.06 ЮВ 6-9
{9}
н/о н/о +16.6 +5.0 46 +16 +16 1013.7 1007.3
03 14.06 ЮВ 5-8
{9}
н/о н/о +16.2 +5.8 50 +15 +15 1014.2 1007.8
04 14.06 ЮВ 4-7
{9}
н/о н/о +15.5 +6.8 56 +15 +15 1014.6 1008.2
05 14.06 В 3-6
{10}
н/о н/о +16.4 +7.1 54 +16 +16 1014.8 1008.4
06 14.06 В 4-8
{10}
55 км 1/0 2000 м
[Ac cuf]
+16.7 +7.6 55 +16 +18 1015.1 1008.7 +14.4 +18.2
07 14.06 В 4-8
{8}
н/о н/о +17.7 +6.6 48 +17 +17 1015.2 1008.8
08 14.06 В 3-7
{9}
н/о н/о +17.3 +7.7 53 +17 +17 1015.8 1009.4
09 14.06 В 2-5
{8}
н/о н/о +16.4 +9.1 62 +17 +17 1015.7 1009.3
10 14.06 В 2-5
{6}
н/о н/о +16.9 +7.3 53 +17 +17 1016.1 1009.7
11 14.06 ЮВ 2-3
{5}
н/о н/о +17.3 +7.1 51 +18 +18 1016.4 1010.0
12 14.06 штиль 0-2
{9}
55 км 9/0 2000 м
[Ac As]
+18.1 +8.4 53 +18 +30 опасность
простуды
1016.5 1010.1
13 14.06 ЮВ 2-3
{3}
н/о н/о +18.3 +7.7 50 +19 +19 1016.2 1009.9
14 14.06 ЮВ 4-8
{8}
н/о н/о +20.0 +8.7 48 +21 +21 комфорт 1015.6 1009.2
15 14.06 ЮВ 4-6
{7}
н/о н/о +19.4 +7.5 46 +20 +20 1015.4 1009.1
16 14.06 ЮВ 4-5
{6}
н/о н/о +20.1 +9.4 50 +21 +21 комфорт 1015.4 1009.1
17 14.06 ЮВ 4-6
{6}
н/о н/о +20.0 +8.4 47 +21 +21 комфорт 1015.2 1008.9
18 14.06 ЮВ 3-4
{8}
55 км 6/0 2000 м
[Ac inh]
+19.2 +8.2 49 +20 +21 1015.4 1009.0 +16.0 +20.5
19 14.06 З 2-7
{7}
н/о н/о +18.3 +9.1 55 +19 +19 1015.9 1009.5
20 14.06 Ю 7-10
{10}
н/о н/о +16.5 +10.1 66 +15 +15 1016.6 1010.1
21 14.06 Ю 4-6
{12}
н/о н/о +16.2 +10.5 69 +16 +16 1017.4 1011.0
22 14.06 ЮЗ 4-6
{8}
н/о н/о +14.6 +11.2 80 +13 +13 1017.8 1011.3
23 14.06 ЮЗ 4-5
{6}
н/о н/о +14.1 +11.1 82 +13 +13 1018.4 1011.9
00 15.06 ЮЗ 4-6
{12}
н/о н/о +14.1 +11.3 83 +13 +13 1018.7 1012.2
01 15.06 Ю 3-4
{5}
н/о н/о +13.9 +11.1 83 +13 +13 1019.0 1012.5
02 15.06 ЮЗ 3-5
{5}
н/о н/о +13.3 +10.7 84 +12 +12 1019.0 1012.4
03 15.06 ЮЗ 1-2
{5}
н/о н/о +12.4 +10.3 87 +12 +12 1019.2 1012.6
04 15.06 Ю 3-4
{4}
н/о н/о +13.3 +11.2 87 +12 +12 1019.3 1012.8
05 15.06 Ю 1-3
{3}
н/о н/о +14.4 +11.4 82 +15 +15 1019.3 1012.8
06 15.06 СВ 1-2
{5}
55 км 1/1 1500 м
[Sc diur, vesp]
+15.4 +12.0 80 +16 +20 1019.0 1012.5 +12.1 +19.3
07 15.06 В 1-2
{2}
н/о н/о +15.9 +11.7 76 +17 +17 1019.1 1012.7
08 15.06 СВ 1-3
{3}
н/о н/о +16.3 +11.7 74 +17 +17 1019.0 1012.5
09 15.06 В 2-3
{3}
н/о н/о +17.9 +11.0 64 +18 +18 1018.3 1011.9
10 15.06 ЮВ 3-3
{3}
н/о н/о +18.5 +9.8 57 +19 +19 1017.9 1011.5
11 15.06 СВ 1-2
{4}
н/о н/о +20.2 +10.0 52 +23 +23 комфорт 1017.1 1010.8
12 15.06 В 2-3
{4}
55 км ясно +21.4 +8.3 43 +23 +36 комфорт 1016.5 1010.2
13 15.06 штиль 0-1
{3}
н/о н/о +22.9 +5.8 33 +23 +23 комфорт 1015.6 1009.3
14 15.06 ЮВ 2-3
{3}
н/о н/о +23.1 +6.0 33 +24 +24 комфорт 1014.8 1008.5
15 15.06 штиль 0-1
{3}
н/о н/о +23.4 +6.7 34 +24 +24 комфорт 1014.1 1007.9
16 15.06 СЗ 1-2
{2}
н/о н/о +25.1 +8.2 34 +25 +25 комфорт 1013.4 1007.2
17 15.06 штиль 0-1
{2}
н/о н/о +24.2 +6.9 33 +24 +24 комфорт 1012.6 1006.4
18 15.06 З 2-3
{3}
н/о н/о +22.2 +7.6 39 +23 +23 комфорт 1012.1 1005.8 +15.1 +25.4
19 15.06 ЮЗ 4-6
{6}
н/о н/о +19.9 +8.9 49 +21 +21 комфорт 1011.8 1005.5
20 15.06 штиль 0-2
{6}
н/о н/о +18.4 +8.4 52 +19 +19 1012.1 1005.8
21 15.06 ЮЗ 2-4
{4}
н/о н/о +17.8 +9.7 59 +18 +18 1012.5 1006.2
22 15.06 ЮЗ 1-2
{3}
н/о н/о +17.2 +10.3 64 +18 +18 1012.7 1006.3
23 15.06 штиль 0-1
{4}
н/о н/о +17.3 +10.4 64 +17 +17 1012.9 1006.6
00 16.06 З 2-4
{6}
н/о н/о +17.7 +10.8 64 +18 +18 1012.7 1006.4
01 16.06 ЮЗ 3-4
{5}
н/о н/о +16.6 +11.3 71 +16 +16 1012.4 1006.0
02 16.06 штиль 0
{4}
н/о н/о +16.6 +11.3 71 +17 +17 1012.0 1005.6
03 16.06 ЮВ 1-2
{3}
н/о н/о +15.6 +11.8 78 +16 +16 1012.3 1005.9
04 16.06 В 2-5
{5}
н/о н/о +15.1 +12.4 84 +15 +15 1011.9 1005.5
05 16.06 В 4-7
{7}
н/о н/о +15.7 +11.9 78 +15 +15 1011.6 1005.2
06 16.06 ЮВ 4-6
{7}
55 км 9/5 1500 м
[Sc]
+15.4 +12.3 82 +14 +15 1011.7 1005.3 +15.0 +22.2
07 16.06 В 2-4
{7}
н/о н/о +15.5 +12.3 81 +15 +15 1011.8 1005.4
08 16.06 ЮВ 2-2
{2}
н/о н/о +15.3 +12.6 84 +15 +15 1012.3 1005.9
09 16.06 В 3-6
{6}
н/о н/о +15.0 +13.2 89 +14 +14 1012.4 1006.0
10 16.06 В 3-5
{5}
н/о н/о +14.9 +13.3 90 +14 +14 1012.6 1006.1
11 16.06 штиль 0-2
{4}
н/о н/о +15.3 +13.5 89 +15 +15 1013.1 1006.6
12 16.06 ЮВ 2-3
{7}
3000 м слаб. морось ?/? +15.1 +13.6 91 +15 +15 1013.2 1006.8 1
13 16.06 ЮЗ 1-3
{3}
н/о н/о +15.1 +13.8 92 +16 +16 1013.4 1006.9
14 16.06 ЮЗ 4-6
{6}
н/о н/о +14.9 +13.6 92 +14 +14 1013.4 1007.0
15 16.06 ЮЗ 4-6
{6}
н/о н/о +14.8 +13.5 92 +14 +14 1013.5 1007.0
16 16.06 ЮЗ 1-3
{6}
н/о н/о +15.1 +13.6 91 +16 +16 1013.8 1007.4
17 16.06 СЗ 1-2
{3}
н/о н/о +15.0 +13.7 92 +15 +15 1013.7 1007.2
18 16.06 ЮЗ 2-3
{6}
3000 м слаб. ливневой дождь 9/6 600 м
[Cb calv Ac inh]
+14.9 +13.6 92 +15 +15 1013.8 1007.3 +14.5 +15.8 3
19 16.06 ЮЗ 2-3
{4}
н/о н/о +15.1 +13.8 92 +15 +15 1013.9 1007.4
20 16.06 ЮЗ 1-2
{2}
н/о н/о +14.7 +13.6 93 +15 +15 1014.0 1007.5
21 16.06 ЮЗ 2-6
{6}
н/о н/о +14.3 +13.4 94 +14 +14 1014.4 1007.9
22 16.06 Ю 5-9
{10}
н/о н/о +13.7 +12.1 90 +12 +12 1014.7 1008.2
23 16.06 ЮЗ 5-7
{9}
н/о н/о +13.5 +11.2 86 +12 +12 1015.1 1008.7
00 17.06 Ю 3-6
{10}
н/о н/о +13.3 +9.7 79 +12 +12 1015.6 1009.2 2
01 17.06 ЮЗ 2-4
{6}
н/о н/о +13.1 +8.8 75 +12 +12 1015.7 1009.2
02 17.06 Ю 1-2
{4}
н/о н/о +12.2 +8.5 78 +12 +12 1015.8 1009.3
03 17.06 ЮЗ 1-2
{4}
н/о н/о +11.6 +7.7 77 +12 +12 1015.8 1009.2
04 17.06 штиль 0-2
{2}
н/о н/о +12.4 +8.5 77 +12 +12 1015.7 1009.1
05 17.06 штиль 0
{2}
н/о н/о +13.9 +10.3 79 +14 +14 1015.3 1008.9
06 17.06 В 2-3
{6}
55 км 1/1 1000 м
[Cb calv]
+14.5 +10.1 75 +14 +17 1015.1 1008.6 +11.2 +15.1 2
07 17.06 В 2-4
{4}
н/о н/о +14.8 +9.8 72 +15 +15 1014.8 1008.3
08 17.06 В 2-4
{4}
н/о н/о +15.2 +10.4 73 +15 +15 1014.4 1008.0
09 17.06 СВ 2-4
{4}
н/о н/о +15.6 +10.4 71 +16 +16 1014.1 1007.6
10 17.06 В 2-3
{3}
н/о н/о +17.5 +10.6 64 +18 +18 1013.5 1007.2
11 17.06 В 1-2
{5}
н/о н/о +17.5 +9.4 59 +19 +19 1012.8 1006.4
12 17.06 СВ 1-2
{5}
55 км 9/0 2000 м
[Ac inh]
+17.6 +8.2 54 +19 +29 1012.1 1005.7
13 17.06 штиль 0-1
{3}
н/о н/о +16.5 +7.2 54 +16 +16 1012.4 1006.0
14 17.06 штиль 0-1
{2}
н/о н/о +17.7 +7.5 51 +18 +18 1012.0 1005.6
15 17.06 СЗ 1-3
{4}
н/о н/о +16.7 +9.4 62 +18 +18 1011.7 1005.3
16 17.06 СЗ 1 н/о н/о +15.8 +10.8 72 +17 +17 1011.6 1005.2
17 17.06 С 2-2
{5}
н/о н/о +15.9 +10.7 71 +16 +16 1011.2 1004.8
18 17.06 Ю 1-2
{5}
2000 м слаб. ливневой дождь 9/5 300 м
[Cu Sc Ac inh]
+15.1 +10.9 76 +16 +16 1011.4 1004.9 +14.0 +18.0 1

 

Местоположение метеостанции Вангснес (Норвегия): широта 61.17 долгота 6.65 высота над уровнем моря 49 м.

В архиве по умолчанию представлена погода в Вангснесе за последнюю неделю. Архивные данные за месяц целиком и за предыдущие месяцы, начиная с января 2011 года, Вы можете получить, выбрав интересующий диапазон дат из раскрывающегося списка и нажав кнопку "Ввод!".


*Определитесь, кто Вы:
робот инопланетянин человек

Внимание! Время в таблицах - всемирное. Для получения местного времени необходимо прибавить поправку, которая равна 1 ч.

Смотрите также архив погоды в соседних городах и на ближайших метеорологических станциях:

Погода в Согндал аэропорту (Норвегия) (26 км)
Погода во Фьерлэнде (Норвегия) (29 км)
Погода в Лардале (Норвегия) (46 км)
Погода в Модалене (Норвегия) (50 км)
Погода во Флурё (Норвегия) (51 км)
Погода во Флурё аэропорту (Норвегия) (53 км)
Погода в Мьолфелле (Норвегия) (55 км)
Погода в Клеваватнете (Норвегия) (58 км)
Погода в Воссевангене (Норвегия) (61 км)
Погода в Булкене (Норвегия) (62 км)

Пояснения к столбцам:

Ветер - указаны скорость ветра в м/с - средняя за 10 мин, порывы в срок и между сроками (в фигурных скобках) и направление, откуда дует ветер: С - северный, СВ - северо-восточный, В - восточный, ЮВ - юго-восточный, Ю - южный, ЮЗ - юго-западный, З - западный, СЗ - северо-западный.
Видимость - горизонтальная дальность видимости в метрах или километрах. При видимости от 1 до 10 км при отсутствии осадков обычно наблюдается дымка, при ухудшении видимости до 1 км и менее - туман. В сухую погоду видимость может ухудшаться дымом, пылью или мглою.
Явления - указаны атмосферные явления, наблюдавшиеся в срок или в последний час перед сроком; фигурными скобками обозначены явления, наблюдавшиеся между сроками (за 1-3 часа до срока); квадратными скобками обозначены град или гололедные отложения с указанием их диаметра в мм.
Облачность - указаны через наклонную черту общая и нижняя облачность в баллах и высота нижней границы облаков в метрах; квадратными скобками обозначены формы облаков: Ci - перистые, Cs - перисто-слоистые, Cc - перисто-кучевые, Ac - высококучевые, As - высокослоистые, Sc - слоисто-кучевые, Ns - слоисто-дождевые, Cu - кучевые, Cb - кучево-дождевые. Подробнее классификацию облаков см. в Атласе облаков (PDF).
T - Температура воздуха - температура, измеренная на высоте 2 м над землей.
Td - Температура точки росы - температура, при понижении до которой содержащийся в воздухе водяной пар достигнет насыщения.
f - Относительная влажность воздуха - влажноcть воздуха, измеренная на высоте 2 м над землей.
Te - Эффективная температура - температура, которую ощущает одетый по сезону человек в тени. Характеристика душности погоды. При расчете учитывается влияние влажности воздуха и скорости ветра на теплоощущения человека.
Tes - Эффективная температура на солнце - температура, которую ощущает человек, с поправкой на солнечный нагрев. Характеристика знойности погоды. Зависит от высоты солнца над горизонтом, облачности и скорости ветра. Ночью, в пасмурную погоду, а также при ветре 12 м/с и более поправка равна нулю.
P - Атмосферное давление - приведенное к уровню моря атмосферное давление.
Po - Атмосферное давление - измеренное на уровне метеостанции атмосферное давление.
Tmin - Минимальная температура - минимум температуры воздуха на высоте 2 м над землей.
Tmax - Максимальная температура - максимум температуры воздуха на высоте 2 м над землей.
R - Количество осадков - Количество выпавших осадков за период времени, мм. При наведении курсора мыши на число - период времени, за который выпало указанное количество осадков.
R24 - Количество осадков - Количество выпавших осадков за 24 часа, мм.
S - Снежный покров - Высота снежного покрова, см. При наведении курсора мыши на число - состояние снежного покрова и степень покрытия местности в баллах.